Time,TemperatureF,DewpointF,PressureIn,WindDirection,WindDirectionDegrees,WindSpeedMPH,WindSpeedGustMPH,Humidity,HourlyPrecipIn,Conditions,Clouds,dailyrainin,SoftwareType,DateUTC
2013-06-28 00:00:00,85.7,75.6,29.85,SSE,158,0.0,1.0,72,0.00,CLR,,0.00,WeatherDisplay:10.37,2013-06-28 05:00:00,
2013-06-28 00:05:00,85.9,75.8,29.85,SSE,158,0.0,5.0,72,0.00,CLR,,0.00,WeatherDisplay:10.37,2013-06-28 05:05:00,
2013-06-28 00:10:00,85.9,76.2,29.85,SSE,158,0.0,2.0,73,0.00,CLR,,0.00,WeatherDisplay:10.37,2013-06-28 05:10:00,
2013-06-28 00:15:00,86.1,76.0,29.85,SSE,158,0.0,3.0,72,0.00,CLR,,0.00,WeatherDisplay:10.37,2013-06-28 05:15:00,
2013-06-28 00:20:00,86.1,75.6,29.85,SSE,158,0.0,3.0,71,0.00,CLR,,0.00,WeatherDisplay:10.37,2013-06-28 05:20:00,
2013-06-28 00:25:00,86.5,76.4,29.85,SSE,158,0.0,1.0,72,0.00,CLR,,0.00,WeatherDisplay:10.37,2013-06-28 05:25:00,
2013-06-28 00:30:00,86.7,76.6,29.85,SSE,158,0.0,1.0,72,0.00,CLR,,0.00,WeatherDisplay:10.37,2013-06-28 05:30:00,
2013-06-28 00:35:00,87.6,77.5,29.84,SSE,158,0.0,1.0,72,0.00,CLR,,0.00,WeatherDisplay:10.37,2013-06-28 05:35:00,
2013-06-28 00:40:00,88.0,74.3,29.84,SW,216,1.0,6.0,64,0.00,CLR,,0.00,WeatherDisplay:10.37,2013-06-28 05:40:00,
2013-06-28 00:45:00,87.8,72.7,29.84,WNW,292,3.0,10.0,61,0.00,CLR,,0.00,WeatherDisplay:10.37,2013-06-28 05:45:00,
2013-06-28 00:50:00,88.0,74.3,29.84,WNW,292,1.0,4.0,64,0.00,CLR,,0.00,WeatherDisplay:10.37,2013-06-28 05:50:00,
2013-06-28 00:55:00,88.0,72.4,29.84,SW,225,1.0,4.0,60,0.00,CLR,,0.00,WeatherDisplay:10.37,2013-06-28 05:55:00,
2013-06-28 01:00:00,87.8,72.7,29.84,South,169,1.0,4.0,61,0.00,CLR,,0.00,WeatherDisplay:10.37,2013-06-28 06:00:00,
2013-06-28 01:05:00,88.0,74.8,29.83,South,180,0.0,4.0,65,0.00,CLR,,0.00,WeatherDisplay:10.37,2013-06-28 06:05:00,
2013-06-28 01:10:00,88.2,74.0,29.83,South,180,0.0,4.0,63,0.00,CLR,,0.00,WeatherDisplay:10.37,2013-06-28 06:10:00,
2013-06-28 01:15:00,88.2,72.6,29.83,South,180,0.0,3.0,60,0.00,CLR,,0.00,WeatherDisplay:10.37,2013-06-28 06:15:00,
2013-06-28 01:20:00,88.2,74.0,29.83,South,180,0.0,3.0,63,0.00,CLR,,0.00,WeatherDisplay:10.37,2013-06-28 06:20:00,
2013-06-28 01:25:00,87.8,72.2,29.83,South,170,1.0,4.0,60,0.00,CLR,,0.00,WeatherDisplay:10.37,2013-06-28 06:25:00,
2013-06-28 01:30:00,87.6,72.0,29.83,SSE,158,0.0,1.0,60,0.00,CLR,,0.00,WeatherDisplay:10.37,2013-06-28 06:30:00,
2013-06-28 01:35:00,87.6,72.0,29.81,South,178,1.0,4.0,60,0.00,CLR,,0.00,WeatherDisplay:10.37,2013-06-28 06:35:00,
2013-06-28 01:40:00,87.6,74.4,29.81,SSW,202,0.0,2.0,65,0.00,CLR,,0.00,WeatherDisplay:10.37,2013-06-28 06:40:00,
2013-06-28 01:45:00,87.8,72.7,29.81,SSW,202,0.0,1.0,61,0.00,CLR,,0.00,WeatherDisplay:10.37,2013-06-28 06:45:00,
2013-06-28 01:50:00,88.2,73.0,29.80,SSW,202,0.0,1.0,61,0.00,CLR,,0.00,WeatherDisplay:10.37,2013-06-28 06:50:00,
2013-06-28 01:55:00,88.4,75.1,29.80,South,171,1.0,6.0,65,0.00,CLR,,0.00,WeatherDisplay:10.37,2013-06-28 06:55:00,
2013-06-28 02:00:00,88.6,73.4,29.80,SE,135,0.0,4.0,61,0.00,CLR,,0.00,WeatherDisplay:10.37,2013-06-28 07:00:00,
2013-06-28 02:05:00,88.8,74.6,29.79,SE,135,0.0,6.0,63,0.00,CLR,,0.00,WeatherDisplay:10.37,2013-06-28 07:05:00,
2013-06-28 02:10:00,89.0,70.7,29.79,SE,135,0.0,4.0,55,0.00,CLR,,0.00,WeatherDisplay:10.37,2013-06-28 07:10:00,
2013-06-28 02:15:00,88.8,72.1,29.79,SE,135,0.0,4.0,58,0.00,CLR,,0.00,WeatherDisplay:10.37,2013-06-28 07:15:00,
2013-06-28 02:20:00,88.8,71.6,29.79,SE,135,0.0,1.0,57,0.00,CLR,,0.00,WeatherDisplay:10.37,2013-06-28 07:20:00,
2013-06-28 02:25:00,89.3,71.5,29.79,SE,135,0.0,1.0,56,0.00,CLR,,0.00,WeatherDisplay:10.37,2013-06-28 07:25:00,
2013-06-28 02:30:00,89.0,70.7,29.79,SE,135,0.0,4.0,55,0.00,CLR,,0.00,WeatherDisplay:10.37,2013-06-28 07:30:00,
2013-06-28 02:35:00,88.8,72.1,29.79,SE,135,0.0,1.0,58,0.00,CLR,,0.00,WeatherDisplay:10.37,2013-06-28 07:35:00,
2013-06-28 02:40:00,88.8,70.5,29.79,SE,135,0.0,1.0,55,0.00,CLR,,0.00,WeatherDisplay:10.37,2013-06-28 07:40:00,
2013-06-28 02:45:00,88.8,71.1,29.79,SE,135,0.0,1.0,56,0.00,CLR,,0.00,WeatherDisplay:10.37,2013-06-28 07:45:00,
2013-06-28 02:50:00,88.4,70.7,29.79,SE,135,0.0,1.0,56,0.00,CLR,,0.00,WeatherDisplay:10.37,2013-06-28 07:50:00,
2013-06-28 02:55:00,88.0,69.3,29.79,South,176,1.0,4.0,54,0.00,CLR,,0.00,WeatherDisplay:10.37,2013-06-28 07:55:00,
2013-06-28 03:00:00,88.2,70.5,29.79,SW,225,0.0,1.0,56,0.00,CLR,,0.00,WeatherDisplay:10.37,2013-06-28 08:00:00,
2013-06-28 03:05:00,88.6,69.8,29.79,SW,225,0.0,1.0,54,0.00,CLR,,0.00,WeatherDisplay:10.37,2013-06-28 08:05:00,
2013-06-28 03:10:00,88.6,69.3,29.79,SW,225,1.0,7.0,53,0.00,CLR,,0.00,WeatherDisplay:10.37,2013-06-28 08:10:00,
2013-06-28 03:15:00,88.6,69.8,29.79,SW,225,0.0,3.0,54,0.00,CLR,,0.00,WeatherDisplay:10.37,2013-06-28 08:15:00,
2013-06-28 03:20:00,88.4,69.6,29.78,SSW,210,2.0,12.0,54,0.00,CLR,,0.00,WeatherDisplay:10.37,2013-06-28 08:20:00,
2013-06-28 03:25:00,88.4,69.6,29.78,SSW,202,0.0,4.0,54,0.00,CLR,,0.00,WeatherDisplay:10.37,2013-06-28 08:25:00,
2013-06-28 03:30:00,88.4,70.2,29.78,SSW,202,0.0,4.0,55,0.00,CLR,,0.00,WeatherDisplay:10.37,2013-06-28 08:30:00,
2013-06-28 03:35:00,88.4,69.6,29.78,SSW,202,0.0,3.0,54,0.00,CLR,,0.00,WeatherDisplay:10.37,2013-06-28 08:35:00,
2013-06-28 03:40:00,88.0,69.8,29.78,SSW,192,1.0,7.0,55,0.00,CLR,,0.00,WeatherDisplay:10.37,2013-06-28 08:40:00,
2013-06-28 03:45:00,88.0,69.3,29.78,South,180,0.0,4.0,54,0.00,CLR,,0.00,WeatherDisplay:10.37,2013-06-28 08:45:00,
2013-06-28 03:50:00,88.2,70.0,29.77,South,180,0.0,6.0,55,0.00,CLR,,0.00,WeatherDisplay:10.37,2013-06-28 08:50:00,
2013-06-28 03:55:00,88.2,68.9,29.77,South,180,0.0,3.0,53,0.00,CLR,,0.00,WeatherDisplay:10.37,2013-06-28 08:55:00,
2013-06-28 04:00:00,88.2,70.0,29.77,South,180,0.0,1.0,55,0.00,CLR,,0.00,WeatherDisplay:10.37,2013-06-28 09:00:00,
2013-06-28 04:05:00,87.8,69.1,29.76,South,180,0.0,1.0,54,0.00,CLR,,0.00,WeatherDisplay:10.37,2013-06-28 09:05:00,
2013-06-28 04:10:00,87.4,69.8,29.76,South,180,0.0,1.0,56,0.00,CLR,,0.00,WeatherDisplay:10.37,2013-06-28 09:10:00,
2013-06-28 04:15:00,87.4,68.7,29.76,South,180,0.0,1.0,54,0.00,CLR,,0.00,WeatherDisplay:10.37,2013-06-28 09:15:00,
2013-06-28 04:20:00,87.6,70.5,29.76,South,180,0.0,1.0,57,0.00,CLR,,0.00,WeatherDisplay:10.37,2013-06-28 09:20:00,
2013-06-28 04:25:00,87.6,70.0,29.76,South,180,1.0,4.0,56,0.00,CLR,,0.00,WeatherDisplay:10.37,2013-06-28 09:25:00,
2013-06-28 04:30:00,87.6,71.0,29.76,South,180,1.0,6.0,58,0.00,CLR,,0.00,WeatherDisplay:10.37,2013-06-28 09:30:00,
2013-06-28 04:35:00,87.4,70.8,29.76,SSW,202,1.0,10.0,58,0.00,CLR,,0.00,WeatherDisplay:10.37,2013-06-28 09:35:00,
2013-06-28 04:40:00,87.6,69.4,29.76,SW,225,0.0,2.0,55,0.00,CLR,,0.00,WeatherDisplay:10.37,2013-06-28 09:40:00,
2013-06-28 04:45:00,87.8,70.7,29.76,SW,225,0.0,2.0,57,0.00,CLR,,0.00,WeatherDisplay:10.37,2013-06-28 09:45:00,
2013-06-28 04:50:00,87.4,70.3,29.75,SW,225,0.0,6.0,57,0.00,CLR,,0.00,WeatherDisplay:10.37,2013-06-28 09:50:00,
2013-06-28 04:55:00,87.0,70.4,29.75,SW,225,0.0,3.0,58,0.00,CLR,,0.00,WeatherDisplay:10.37,2013-06-28 09:55:00,
2013-06-28 05:00:00,87.0,71.4,29.75,SW,225,0.0,4.0,60,0.00,CLR,,0.00,WeatherDisplay:10.37,2013-06-28 10:00:00,
2013-06-28 05:05:00,87.0,69.4,29.75,SW,225,0.0,3.0,56,0.00,CLR,,0.00,WeatherDisplay:10.37,2013-06-28 10:05:00,
2013-06-28 05:10:00,87.2,70.6,29.75,SSW,204,1.0,6.0,58,0.00,CLR,,0.00,WeatherDisplay:10.37,2013-06-28 10:10:00,
2013-06-28 05:15:00,87.0,68.9,29.75,SW,225,1.0,4.0,55,0.00,CLR,,0.00,WeatherDisplay:10.37,2013-06-28 10:15:00,
2013-06-28 05:20:00,86.5,70.0,29.75,SW,225,1.0,6.0,58,0.00,CLR,,0.00,WeatherDisplay:10.37,2013-06-28 10:20:00,
2013-06-28 05:25:00,86.3,71.3,29.75,South,191,1.0,6.0,61,0.00,CLR,,0.00,WeatherDisplay:10.37,2013-06-28 10:25:00,
2013-06-28 05:30:00,86.3,70.3,29.75,WSW,247,1.0,4.0,59,0.00,CLR,,0.00,WeatherDisplay:10.37,2013-06-28 10:30:00,
2013-06-28 05:35:00,86.1,69.6,29.75,NW,315,1.0,6.0,58,0.00,CLR,,0.00,WeatherDisplay:10.37,2013-06-28 10:35:00,
2013-06-28 05:40:00,85.7,70.2,29.75,NW,315,1.0,6.0,60,0.00,CLR,,0.00,WeatherDisplay:10.37,2013-06-28 10:40:00,
2013-06-28 05:45:00,85.5,70.0,29.75,West,281,1.0,5.0,60,0.00,CLR,,0.00,WeatherDisplay:10.37,2013-06-28 10:45:00,
2013-06-28 05:50:00,85.3,69.8,29.75,West,270,1.0,5.0,60,0.00,CLR,,0.00,WeatherDisplay:10.37,2013-06-28 10:50:00,
2013-06-28 05:55:00,84.9,69.9,29.75,West,270,0.0,4.0,61,0.00,CLR,,0.00,WeatherDisplay:10.37,2013-06-28 10:55:00,
2013-06-28 06:00:00,84.5,70.0,29.75,West,270,0.0,4.0,62,0.00,CLR,,0.00,WeatherDisplay:10.37,2013-06-28 11:00:00,
2013-06-28 06:05:00,84.3,70.8,29.75,West,270,0.0,1.0,64,0.00,CLR,,0.00,WeatherDisplay:10.37,2013-06-28 11:05:00,
2013-06-28 06:10:00,84.1,70.6,29.75,West,260,1.0,6.0,64,0.00,CLR,,0.00,WeatherDisplay:10.37,2013-06-28 11:10:00,
2013-06-28 06:15:00,84.1,69.7,29.75,WSW,248,0.0,5.0,62,0.00,CLR,,0.00,WeatherDisplay:10.37,2013-06-28 11:15:00,
2013-06-28 06:20:00,84.3,70.3,29.75,WSW,248,0.0,1.0,63,0.00,CLR,,0.00,WeatherDisplay:10.37,2013-06-28 11:20:00,
2013-06-28 06:25:00,84.7,70.7,29.75,WSW,248,0.0,1.0,63,0.00,CLR,,0.00,WeatherDisplay:10.37,2013-06-28 11:25:00,
2013-06-28 06:30:00,84.7,70.7,29.75,WSW,248,0.0,1.0,63,0.00,CLR,,0.00,WeatherDisplay:10.37,2013-06-28 11:30:00,
2013-06-28 06:35:00,84.7,71.2,29.74,WSW,248,0.0,1.0,64,0.00,CLR,,0.00,WeatherDisplay:10.37,2013-06-28 11:35:00,
2013-06-28 06:40:00,84.5,70.5,29.74,WSW,248,0.0,1.0,63,0.00,CLR,,0.00,WeatherDisplay:10.37,2013-06-28 11:40:00,
2013-06-28 06:45:00,84.1,69.7,29.74,West,268,1.0,5.0,62,0.00,CLR,,0.00,WeatherDisplay:10.37,2013-06-28 11:45:00,
2013-06-28 06:50:00,83.8,69.4,29.75,WNW,292,1.0,5.0,62,0.00,CLR,,0.00,WeatherDisplay:10.37,2013-06-28 11:50:00,
2013-06-28 06:55:00,82.8,70.3,29.75,WNW,303,1.0,7.0,66,0.01,RA,,0.01,WeatherDisplay:10.37,2013-06-28 11:55:00,
2013-06-28 07:00:00,81.1,72.8,29.75,NW,315,0.0,1.0,76,0.04,RA,,0.04,WeatherDisplay:10.37,2013-06-28 12:00:00,
2013-06-28 07:05:00,79.6,71.0,29.77,NW,315,0.0,2.0,75,0.03,RA,,0.04,WeatherDisplay:10.37,2013-06-28 12:05:00,
2013-06-28 07:10:00,78.5,71.1,29.77,NW,315,0.0,0.0,78,0.00,CLR,,0.04,WeatherDisplay:10.37,2013-06-28 12:10:00,
2013-06-28 07:15:00,77.9,71.6,29.77,NW,315,0.0,1.0,81,0.00,CLR,,0.04,WeatherDisplay:10.37,2013-06-28 12:15:00,
2013-06-28 07:20:00,77.0,71.8,29.77,NW,315,0.0,1.0,84,0.00,CLR,,0.04,WeatherDisplay:10.37,2013-06-28 12:20:00,
2013-06-28 07:25:00,76.3,71.1,29.77,NW,315,0.0,1.0,84,0.00,CLR,,0.04,WeatherDisplay:10.37,2013-06-28 12:25:00,
2013-06-28 07:30:00,76.0,71.5,29.77,NW,315,0.0,0.0,86,0.00,CLR,,0.04,WeatherDisplay:10.37,2013-06-28 12:30:00,
2013-06-28 07:35:00,75.4,70.9,29.78,NW,315,0.0,0.0,86,0.00,CLR,,0.04,WeatherDisplay:10.37,2013-06-28 12:35:00,
2013-06-28 07:40:00,75.3,71.2,29.78,NW,315,0.0,0.0,87,0.00,CLR,,0.04,WeatherDisplay:10.37,2013-06-28 12:40:00,
2013-06-28 07:45:00,74.9,70.4,29.78,NW,315,0.0,0.0,86,0.00,CLR,,0.04,WeatherDisplay:10.37,2013-06-28 12:45:00,
2013-06-28 07:50:00,74.9,70.4,29.78,NW,315,0.0,0.0,86,0.00,CLR,,0.04,WeatherDisplay:10.37,2013-06-28 12:50:00,
2013-06-28 07:55:00,75.1,70.3,29.78,NW,315,0.0,0.0,85,0.00,CLR,,0.04,WeatherDisplay:10.37,2013-06-28 12:55:00,
2013-06-28 08:00:00,74.9,70.1,29.78,NW,315,0.0,0.0,85,0.00,CLR,,0.04,WeatherDisplay:10.37,2013-06-28 13:00:00,
2013-06-28 08:05:00,74.7,70.6,29.79,NW,315,0.0,0.0,87,0.00,CLR,,0.04,WeatherDisplay:10.37,2013-06-28 13:05:00,
2013-06-28 08:10:00,74.6,70.8,29.79,NW,315,0.0,0.0,88,0.00,CLR,,0.04,WeatherDisplay:10.37,2013-06-28 13:10:00,
2013-06-28 08:15:00,74.4,70.6,29.79,NW,315,0.0,0.0,88,0.00,CLR,,0.04,WeatherDisplay:10.37,2013-06-28 13:15:00,
2013-06-28 08:20:00,74.2,70.7,29.79,NW,315,0.0,0.0,89,0.00,CLR,,0.04,WeatherDisplay:10.37,2013-06-28 13:20:00,
2013-06-28 08:25:00,74.0,70.6,29.79,NW,315,0.0,0.0,89,0.00,CLR,,0.04,WeatherDisplay:10.37,2013-06-28 13:25:00,
2013-06-28 08:30:00,73.9,70.5,29.79,NW,315,0.0,0.0,89,0.00,CLR,,0.04,WeatherDisplay:10.37,2013-06-28 13:30:00,
2013-06-28 08:35:00,73.7,70.6,29.79,NW,315,0.0,0.0,90,0.00,CLR,,0.04,WeatherDisplay:10.37,2013-06-28 13:35:00,
2013-06-28 08:40:00,73.5,70.4,29.79,NW,315,0.0,0.0,90,0.00,CLR,,0.04,WeatherDisplay:10.37,2013-06-28 13:40:00,
2013-06-28 08:45:00,73.5,70.7,29.79,NW,315,0.0,0.0,91,0.00,CLR,,0.04,WeatherDisplay:10.37,2013-06-28 13:45:00,
2013-06-28 08:50:00,73.3,70.5,29.79,NW,315,0.0,1.0,91,0.00,CLR,,0.04,WeatherDisplay:10.37,2013-06-28 13:50:00,
2013-06-28 08:55:00,73.2,70.7,29.79,NW,315,0.0,0.0,92,0.00,CLR,,0.04,WeatherDisplay:10.37,2013-06-28 13:55:00,
2013-06-28 09:00:00,73.0,70.5,29.79,NW,315,0.0,0.0,92,0.00,CLR,,0.04,WeatherDisplay:10.37,2013-06-28 14:00:00,
2013-06-28 09:05:00,72.8,70.3,29.80,NW,315,0.0,0.0,92,0.00,CLR,,0.04,WeatherDisplay:10.37,2013-06-28 14:05:00,
2013-06-28 09:10:00,72.7,70.2,29.80,NW,315,0.0,0.0,92,0.00,CLR,,0.04,WeatherDisplay:10.37,2013-06-28 14:10:00,
2013-06-28 09:15:00,72.7,70.2,29.80,NW,315,0.0,0.0,92,0.00,CLR,,0.04,WeatherDisplay:10.37,2013-06-28 14:15:00,
2013-06-28 09:20:00,72.5,70.0,29.80,NW,315,0.0,0.0,92,0.00,CLR,,0.04,WeatherDisplay:10.37,2013-06-28 14:20:00,
2013-06-28 09:25:00,72.5,70.0,29.80,NW,315,0.0,0.0,92,0.00,CLR,,0.04,WeatherDisplay:10.37,2013-06-28 14:25:00,
2013-06-28 09:30:00,72.3,70.2,29.80,NW,315,0.0,0.0,93,0.00,CLR,,0.04,WeatherDisplay:10.37,2013-06-28 14:30:00,
2013-06-28 09:35:00,72.1,70.0,29.80,NW,315,0.0,0.0,93,0.00,CLR,,0.04,WeatherDisplay:10.37,2013-06-28 14:35:00,
2013-06-28 09:40:00,72.0,69.9,29.80,NW,315,0.0,0.0,93,0.00,CLR,,0.04,WeatherDisplay:10.37,2013-06-28 14:40:00,
2013-06-28 09:45:00,72.0,69.9,29.80,NW,315,0.0,0.0,93,0.00,CLR,,0.04,WeatherDisplay:10.37,2013-06-28 14:45:00,
2013-06-28 09:50:00,71.8,69.7,29.80,NW,315,0.0,0.0,93,0.00,CLR,,0.04,WeatherDisplay:10.37,2013-06-28 14:50:00,
2013-06-28 09:55:00,71.8,69.7,29.80,NW,315,0.0,0.0,93,0.00,CLR,,0.04,WeatherDisplay:10.37,2013-06-28 14:55:00,
2013-06-28 10:00:00,71.6,69.5,29.80,NW,315,0.0,0.0,93,0.00,CLR,,0.04,WeatherDisplay:10.37,2013-06-28 15:00:00,
2013-06-28 10:05:00,71.3,69.2,29.80,NW,315,0.0,0.0,93,0.00,CLR,,0.04,WeatherDisplay:10.37,2013-06-28 15:05:00,
2013-06-28 10:10:00,70.9,68.8,29.80,NW,315,0.0,0.0,93,0.00,CLR,,0.04,WeatherDisplay:10.37,2013-06-28 15:10:00,
2013-06-28 10:15:00,70.8,68.7,29.80,NW,315,0.0,0.0,93,0.00,CLR,,0.04,WeatherDisplay:10.37,2013-06-28 15:15:00,
2013-06-28 10:20:00,70.4,68.3,29.80,NW,315,0.0,0.0,93,0.00,CLR,,0.04,WeatherDisplay:10.37,2013-06-28 15:20:00,
2013-06-28 10:25:00,70.4,68.3,29.80,NW,315,0.0,0.0,93,0.00,CLR,,0.04,WeatherDisplay:10.37,2013-06-28 15:25:00,
2013-06-28 10:30:00,70.3,68.5,29.80,NW,315,0.0,0.0,94,0.00,CLR,,0.04,WeatherDisplay:10.37,2013-06-28 15:30:00,
2013-06-28 10:35:00,70.3,68.5,29.80,NW,315,0.0,0.0,94,0.00,CLR,,0.04,WeatherDisplay:10.37,2013-06-28 15:35:00,
2013-06-28 10:40:00,70.1,68.3,29.80,NW,315,0.0,0.0,94,0.00,CLR,,0.04,WeatherDisplay:10.37,2013-06-28 15:40:00,
2013-06-28 10:45:00,70.1,68.3,29.80,NW,315,0.0,0.0,94,0.00,CLR,,0.04,WeatherDisplay:10.37,2013-06-28 15:45:00,
2013-06-28 10:50:00,70.1,68.3,29.80,NW,315,0.0,0.0,94,0.00,CLR,,0.04,WeatherDisplay:10.37,2013-06-28 15:50:00,
2013-06-28 10:55:00,69.9,68.1,29.80,NW,315,0.0,0.0,94,0.00,CLR,,0.04,WeatherDisplay:10.37,2013-06-28 15:55:00,
2013-06-28 11:00:00,69.9,68.1,29.80,NW,315,0.0,0.0,94,0.00,CLR,,0.04,WeatherDisplay:10.37,2013-06-28 16:00:00,
2013-06-28 11:05:00,70.1,68.3,29.81,NW,315,0.0,0.0,94,0.00,CLR,,0.04,WeatherDisplay:10.37,2013-06-28 16:05:00,
2013-06-28 11:10:00,70.1,68.3,29.81,NW,315,0.0,0.0,94,0.00,CLR,,0.04,WeatherDisplay:10.37,2013-06-28 16:10:00,
2013-06-28 11:15:00,70.1,68.6,29.81,NW,315,0.0,0.0,95,0.00,CLR,,0.04,WeatherDisplay:10.37,2013-06-28 16:15:00,
2013-06-28 11:20:00,70.1,68.6,29.81,NW,315,0.0,0.0,95,0.00,CLR,,0.04,WeatherDisplay:10.37,2013-06-28 16:20:00,
2013-06-28 11:25:00,70.1,68.6,29.81,NW,315,0.0,0.0,95,0.00,CLR,,0.04,WeatherDisplay:10.37,2013-06-28 16:25:00,
2013-06-28 11:30:00,70.1,68.6,29.81,NW,315,0.0,0.0,95,0.00,CLR,,0.04,WeatherDisplay:10.37,2013-06-28 16:30:00,
2013-06-28 11:35:00,69.9,68.4,29.81,NW,315,0.0,0.0,95,0.00,CLR,,0.04,WeatherDisplay:10.37,2013-06-28 16:35:00,
2013-06-28 11:40:00,69.9,68.4,29.81,NW,315,0.0,0.0,95,0.00,CLR,,0.04,WeatherDisplay:10.37,2013-06-28 16:40:00,
2013-06-28 11:45:00,69.9,68.4,29.81,NW,315,0.0,0.0,95,0.00,CLR,,0.04,WeatherDisplay:10.37,2013-06-28 16:45:00,
2013-06-28 11:50:00,69.9,68.4,29.80,NW,315,0.0,0.0,95,0.00,CLR,,0.04,WeatherDisplay:10.37,2013-06-28 16:50:00,
2013-06-28 11:55:00,70.1,68.6,29.80,NW,315,0.0,0.0,95,0.00,CLR,,0.04,WeatherDisplay:10.37,2013-06-28 16:55:00,
2013-06-28 12:00:00,70.1,68.6,29.80,NW,315,0.0,0.0,95,0.00,CLR,,0.04,WeatherDisplay:10.37,2013-06-28 17:00:00,
2013-06-28 12:05:00,70.1,68.6,29.80,NW,315,0.0,0.0,95,0.00,CLR,,0.04,WeatherDisplay:10.37,2013-06-28 17:05:00,
2013-06-28 12:10:00,70.3,68.8,29.80,NW,315,0.0,0.0,95,0.00,CLR,,0.04,WeatherDisplay:10.37,2013-06-28 17:10:00,
2013-06-28 12:15:00,70.1,68.6,29.80,NW,315,0.0,0.0,95,0.00,CLR,,0.04,WeatherDisplay:10.37,2013-06-28 17:15:00,
2013-06-28 12:20:00,70.1,68.6,29.78,NW,315,0.0,0.0,95,0.00,CLR,,0.04,WeatherDisplay:10.37,2013-06-28 17:20:00,
2013-06-28 12:25:00,70.1,68.6,29.78,NW,315,0.0,0.0,95,0.00,CLR,,0.04,WeatherDisplay:10.37,2013-06-28 17:25:00,
2013-06-28 12:30:00,69.9,68.4,29.78,NW,315,0.0,0.0,95,0.00,CLR,,0.04,WeatherDisplay:10.37,2013-06-28 17:30:00,
2013-06-28 12:35:00,69.9,68.4,29.79,NW,315,0.0,0.0,95,0.00,CLR,,0.04,WeatherDisplay:10.37,2013-06-28 17:35:00,
2013-06-28 12:40:00,70.1,68.6,29.79,NW,315,0.0,0.0,95,0.00,CLR,,0.04,WeatherDisplay:10.37,2013-06-28 17:40:00,
2013-06-28 12:45:00,70.1,68.6,29.79,NW,315,0.0,0.0,95,0.00,CLR,,0.04,WeatherDisplay:10.37,2013-06-28 17:45:00,
2013-06-28 12:50:00,70.3,68.8,29.79,NW,315,0.0,0.0,95,0.00,CLR,,0.04,WeatherDisplay:10.37,2013-06-28 17:50:00,
2013-06-28 12:55:00,70.4,68.9,29.79,NW,315,0.0,3.0,95,0.00,CLR,,0.04,WeatherDisplay:10.37,2013-06-28 17:55:00,
2013-06-28 13:00:00,70.6,69.4,29.79,NW,315,0.0,2.0,96,0.00,CLR,,0.04,WeatherDisplay:10.37,2013-06-28 18:00:00,
2013-06-28 13:05:00,70.8,69.6,29.77,NW,315,0.0,1.0,96,0.00,RA,,0.00,WeatherDisplay:10.37,2013-06-28 18:05:00,
2013-06-28 13:10:00,70.8,69.3,29.77,NW,315,0.0,0.0,95,0.00,RA,,0.00,WeatherDisplay:10.37,2013-06-28 18:10:00,
2013-06-28 13:15:00,70.8,69.3,29.77,NW,315,0.0,0.0,95,0.00,CLR,,0.00,WeatherDisplay:10.37,2013-06-28 18:15:00,
2013-06-28 13:20:00,70.6,69.1,29.76,NW,315,0.0,0.0,95,0.00,CLR,,0.00,WeatherDisplay:10.37,2013-06-28 18:20:00,
2013-06-28 13:25:00,70.8,69.6,29.76,NW,315,0.0,0.0,96,0.00,CLR,,0.00,WeatherDisplay:10.37,2013-06-28 18:25:00,
2013-06-28 13:30:00,70.6,69.1,29.76,NW,315,0.0,0.0,95,0.00,CLR,,0.00,WeatherDisplay:10.37,2013-06-28 18:30:00,
2013-06-28 13:35:00,70.6,69.1,29.76,NW,315,0.0,0.0,95,0.00,CLR,,0.00,WeatherDisplay:10.37,2013-06-28 18:35:00,
2013-06-28 13:40:00,70.4,68.9,29.76,NW,315,0.0,0.0,95,0.00,CLR,,0.00,WeatherDisplay:10.37,2013-06-28 18:40:00,
2013-06-28 13:45:00,70.4,68.9,29.76,NW,315,0.0,0.0,95,0.00,CLR,,0.00,WeatherDisplay:10.37,2013-06-28 18:45:00,
2013-06-28 13:50:00,70.3,68.8,29.76,NW,315,0.0,0.0,95,0.00,CLR,,0.00,WeatherDisplay:10.37,2013-06-28 18:50:00,
2013-06-28 13:55:00,70.3,68.8,29.76,NW,315,0.0,0.0,95,0.00,CLR,,0.00,WeatherDisplay:10.37,2013-06-28 18:55:00,
2013-06-28 14:00:00,70.3,68.8,29.76,NW,315,0.0,0.0,95,0.00,CLR,,0.00,WeatherDisplay:10.37,2013-06-28 19:00:00,
2013-06-28 14:05:00,70.1,68.6,29.76,NW,315,0.0,0.0,95,0.00,CLR,,0.00,WeatherDisplay:10.37,2013-06-28 19:05:00,
2013-06-28 14:10:00,70.1,68.6,29.76,NW,315,0.0,0.0,95,0.00,CLR,,0.00,WeatherDisplay:10.37,2013-06-28 19:10:00,
2013-06-28 14:15:00,69.9,68.4,29.76,NW,315,0.0,0.0,95,0.00,CLR,,0.00,WeatherDisplay:10.37,2013-06-28 19:15:00,
2013-06-28 14:20:00,69.9,68.7,29.77,NW,315,0.0,0.0,96,0.00,CLR,,0.00,WeatherDisplay:10.37,2013-06-28 19:20:00,
2013-06-28 14:25:00,69.9,68.4,29.77,NW,315,0.0,0.0,95,0.00,CLR,,0.00,WeatherDisplay:10.37,2013-06-28 19:25:00,
2013-06-28 14:30:00,69.9,68.7,29.77,NW,315,0.0,0.0,96,0.00,CLR,,0.00,WeatherDisplay:10.37,2013-06-28 19:30:00,
2013-06-28 14:35:00,69.9,68.7,29.76,NW,315,0.0,0.0,96,0.00,CLR,,0.00,WeatherDisplay:10.37,2013-06-28 19:35:00,
2013-06-28 14:40:00,69.9,68.7,29.76,NW,315,0.0,0.0,96,0.00,CLR,,0.00,WeatherDisplay:10.37,2013-06-28 19:40:00,
2013-06-28 14:45:00,69.9,68.7,29.76,NW,315,0.0,0.0,96,0.00,CLR,,0.00,WeatherDisplay:10.37,2013-06-28 19:45:00,
2013-06-28 14:50:00,70.1,68.9,29.76,NW,315,0.0,0.0,96,0.00,CLR,,0.00,WeatherDisplay:10.37,2013-06-28 19:50:00,
2013-06-28 14:55:00,70.1,68.9,29.76,NW,315,0.0,0.0,96,0.00,CLR,,0.00,WeatherDisplay:10.37,2013-06-28 19:55:00,
2013-06-28 15:00:00,70.1,68.9,29.76,NW,315,0.0,0.0,96,0.00,CLR,,0.00,WeatherDisplay:10.37,2013-06-28 20:00:00,
2013-06-28 15:05:00,70.1,68.9,29.76,NW,315,0.0,0.0,96,0.00,CLR,,0.00,WeatherDisplay:10.37,2013-06-28 20:05:00,
2013-06-28 15:10:00,70.1,68.9,29.76,NW,315,0.0,0.0,96,0.01,RA,,0.01,WeatherDisplay:10.37,2013-06-28 20:10:00,
2013-06-28 15:15:00,70.1,68.9,29.76,NW,315,0.0,0.0,96,0.01,RA,,0.01,WeatherDisplay:10.37,2013-06-28 20:15:00,
2013-06-28 15:20:00,70.1,68.9,29.76,NW,315,0.0,0.0,96,0.00,CLR,,0.01,WeatherDisplay:10.37,2013-06-28 20:20:00,
2013-06-28 15:25:00,70.1,68.9,29.76,NW,315,0.0,0.0,96,0.00,CLR,,0.01,WeatherDisplay:10.37,2013-06-28 20:25:00,
2013-06-28 15:30:00,70.3,69.1,29.76,NW,315,0.0,0.0,96,0.00,CLR,,0.01,WeatherDisplay:10.37,2013-06-28 20:30:00,
2013-06-28 15:35:00,70.3,69.1,29.76,NW,315,0.0,0.0,96,0.00,CLR,,0.01,WeatherDisplay:10.37,2013-06-28 20:35:00,
2013-06-28 15:40:00,70.3,69.1,29.76,NW,315,0.0,0.0,96,0.01,RA,,0.02,WeatherDisplay:10.37,2013-06-28 20:40:00,
2013-06-28 15:45:00,70.3,69.1,29.76,NW,315,0.0,0.0,96,0.01,RA,,0.02,WeatherDisplay:10.37,2013-06-28 20:45:00,
2013-06-28 15:50:00,70.3,69.1,29.76,NW,315,0.0,0.0,96,0.00,CLR,,0.02,WeatherDisplay:10.37,2013-06-28 20:50:00,
2013-06-28 15:55:00,70.4,69.2,29.76,NW,315,0.0,0.0,96,0.00,CLR,,0.02,WeatherDisplay:10.37,2013-06-28 20:55:00,
2013-06-28 16:00:00,70.4,69.2,29.76,NW,315,0.0,0.0,96,0.00,CLR,,0.02,WeatherDisplay:10.37,2013-06-28 21:00:00,
2013-06-28 16:05:00,70.4,69.2,29.76,NW,315,0.0,0.0,96,0.00,CLR,,0.02,WeatherDisplay:10.37,2013-06-28 21:05:00,
2013-06-28 16:10:00,70.4,69.2,29.76,NW,315,0.0,0.0,96,0.00,CLR,,0.02,WeatherDisplay:10.37,2013-06-28 21:10:00,
2013-06-28 16:15:00,70.4,69.2,29.76,NW,315,0.0,0.0,96,0.00,CLR,,0.02,WeatherDisplay:10.37,2013-06-28 21:15:00,
2013-06-28 16:20:00,70.4,69.2,29.77,NW,315,0.0,0.0,96,0.00,CLR,,0.02,WeatherDisplay:10.37,2013-06-28 21:20:00,
2013-06-28 16:25:00,70.6,69.4,29.77,NW,315,0.0,0.0,96,0.00,CLR,,0.02,WeatherDisplay:10.37,2013-06-28 21:25:00,
2013-06-28 16:30:00,70.6,69.4,29.77,NW,315,0.0,0.0,96,0.00,CLR,,0.02,WeatherDisplay:10.37,2013-06-28 21:30:00,
2013-06-28 16:35:00,70.6,69.4,29.77,NW,315,0.0,0.0,96,0.00,CLR,,0.02,WeatherDisplay:10.37,2013-06-28 21:35:00,
2013-06-28 16:40:00,70.6,69.4,29.77,NW,315,0.0,0.0,96,0.00,CLR,,0.02,WeatherDisplay:10.37,2013-06-28 21:40:00,
2013-06-28 16:45:00,70.6,69.4,29.77,NW,315,0.0,0.0,96,0.00,CLR,,0.02,WeatherDisplay:10.37,2013-06-28 21:45:00,
2013-06-28 16:50:00,70.6,69.4,29.77,NW,315,0.0,0.0,96,0.00,CLR,,0.02,WeatherDisplay:10.37,2013-06-28 21:50:00,
2013-06-28 16:55:00,70.6,69.4,29.77,NW,315,0.0,0.0,96,0.00,CLR,,0.02,WeatherDisplay:10.37,2013-06-28 21:55:00,
2013-06-28 17:00:00,70.6,69.4,29.77,NW,315,0.0,0.0,96,0.00,CLR,,0.02,WeatherDisplay:10.37,2013-06-28 22:00:00,
2013-06-28 17:05:00,70.6,69.4,29.77,NW,315,0.0,0.0,96,0.00,CLR,,0.02,WeatherDisplay:10.37,2013-06-28 22:05:00,
2013-06-28 17:10:00,70.6,69.4,29.77,NW,315,0.0,0.0,96,0.00,CLR,,0.02,WeatherDisplay:10.37,2013-06-28 22:10:00,
2013-06-28 17:15:00,70.6,69.4,29.77,NW,315,0.0,0.0,96,0.00,CLR,,0.02,WeatherDisplay:10.37,2013-06-28 22:15:00,
2013-06-28 17:20:00,70.6,69.4,29.78,NW,315,0.0,0.0,96,0.00,CLR,,0.02,WeatherDisplay:10.37,2013-06-28 22:20:00,
2013-06-28 17:25:00,70.6,69.4,29.78,NW,315,0.0,0.0,96,0.00,CLR,,0.02,WeatherDisplay:10.37,2013-06-28 22:25:00,
2013-06-28 17:30:00,70.6,69.4,29.78,NW,315,0.0,0.0,96,0.00,CLR,,0.02,WeatherDisplay:10.37,2013-06-28 22:30:00,
2013-06-28 17:35:00,70.6,69.4,29.78,NW,315,0.0,0.0,96,0.00,CLR,,0.02,WeatherDisplay:10.37,2013-06-28 22:35:00,
2013-06-28 17:40:00,70.6,69.4,29.78,NW,315,0.0,0.0,96,0.00,CLR,,0.02,WeatherDisplay:10.37,2013-06-28 22:40:00,
2013-06-28 17:45:00,70.4,69.2,29.78,NW,315,0.0,0.0,96,0.00,CLR,,0.02,WeatherDisplay:10.37,2013-06-28 22:45:00,
2013-06-28 17:50:00,70.4,69.2,29.78,NW,315,0.0,0.0,96,0.00,CLR,,0.02,WeatherDisplay:10.37,2013-06-28 22:50:00,
2013-06-28 17:55:00,70.4,69.2,29.78,NW,315,0.0,0.0,96,0.00,CLR,,0.02,WeatherDisplay:10.37,2013-06-28 22:55:00,
2013-06-28 18:00:00,70.4,69.2,29.78,NW,315,0.0,0.0,96,0.00,CLR,,0.02,WeatherDisplay:10.37,2013-06-28 23:00:00,
2013-06-28 18:05:00,70.3,69.1,29.78,NW,315,0.0,0.0,96,0.00,CLR,,0.02,WeatherDisplay:10.37,2013-06-28 23:05:00,
2013-06-28 18:10:00,70.3,69.1,29.78,NW,315,0.0,0.0,96,0.00,CLR,,0.02,WeatherDisplay:10.37,2013-06-28 23:10:00,
2013-06-28 18:15:00,70.1,68.9,29.78,NW,315,0.0,0.0,96,0.00,CLR,,0.02,WeatherDisplay:10.37,2013-06-28 23:15:00,
2013-06-28 18:20:00,69.9,68.7,29.78,NW,315,0.0,0.0,96,0.00,CLR,,0.02,WeatherDisplay:10.37,2013-06-28 23:20:00,
2013-06-28 18:25:00,69.8,68.6,29.78,NW,315,0.0,0.0,96,0.00,CLR,,0.02,WeatherDisplay:10.37,2013-06-28 23:25:00,
2013-06-28 18:30:00,69.6,68.4,29.78,NW,315,0.0,0.0,96,0.00,CLR,,0.02,WeatherDisplay:10.37,2013-06-28 23:30:00,
2013-06-28 18:35:00,69.6,68.4,29.78,NW,315,0.0,0.0,96,0.00,CLR,,0.02,WeatherDisplay:10.37,2013-06-28 23:35:00,
2013-06-28 18:40:00,69.4,68.2,29.78,NW,315,0.0,0.0,96,0.00,CLR,,0.02,WeatherDisplay:10.37,2013-06-28 23:40:00,
2013-06-28 18:45:00,69.4,68.2,29.78,NW,315,0.0,0.0,96,0.00,CLR,,0.02,WeatherDisplay:10.37,2013-06-28 23:45:00,
2013-06-28 18:50:00,69.4,68.2,29.79,NW,315,0.0,0.0,96,0.00,CLR,,0.02,WeatherDisplay:10.37,2013-06-28 23:50:00,
2013-06-28 18:55:00,69.4,68.2,29.79,NW,315,0.0,0.0,96,0.00,CLR,,0.02,WeatherDisplay:10.37,2013-06-28 23:55:00,
2013-06-28 19:00:00,69.4,68.2,29.79,NW,315,0.0,0.0,96,0.00,CLR,,0.02,WeatherDisplay:10.37,2013-06-29 00:00:00,
2013-06-28 19:05:00,69.4,68.2,29.79,NW,315,0.0,0.0,96,0.00,CLR,,0.02,WeatherDisplay:10.37,2013-06-29 00:05:00,
2013-06-28 19:10:00,69.6,68.4,29.79,NW,315,0.0,0.0,96,0.00,CLR,,0.02,WeatherDisplay:10.37,2013-06-29 00:10:00,
2013-06-28 19:15:00,69.6,68.4,29.79,NW,315,0.0,0.0,96,0.00,CLR,,0.02,WeatherDisplay:10.37,2013-06-29 00:15:00,
2013-06-28 19:20:00,69.8,68.6,29.79,NW,315,0.0,0.0,96,0.00,CLR,,0.02,WeatherDisplay:10.37,2013-06-29 00:20:00,
2013-06-28 19:25:00,69.9,68.7,29.79,NW,315,0.0,0.0,96,0.00,CLR,,0.02,WeatherDisplay:10.37,2013-06-29 00:25:00,
2013-06-28 19:30:00,69.8,68.6,29.79,NW,315,0.0,0.0,96,0.00,CLR,,0.02,WeatherDisplay:10.37,2013-06-29 00:30:00,
2013-06-28 19:35:00,69.8,68.6,29.79,NW,315,0.0,0.0,96,0.00,CLR,,0.02,WeatherDisplay:10.37,2013-06-29 00:35:00,
2013-06-28 19:40:00,69.9,68.7,29.79,NW,315,0.0,0.0,96,0.00,CLR,,0.02,WeatherDisplay:10.37,2013-06-29 00:40:00,
2013-06-28 19:45:00,69.9,68.7,29.79,NW,315,0.0,1.0,96,0.00,CLR,,0.02,WeatherDisplay:10.37,2013-06-29 00:45:00,
2013-06-28 19:50:00,70.1,68.9,29.79,NW,315,0.0,0.0,96,0.00,CLR,,0.02,WeatherDisplay:10.37,2013-06-29 00:50:00,
2013-06-28 19:55:00,70.3,69.1,29.79,NW,315,0.0,0.0,96,0.00,CLR,,0.02,WeatherDisplay:10.37,2013-06-29 00:55:00,
2013-06-28 20:00:00,70.3,69.1,29.79,NW,315,0.0,0.0,96,0.00,CLR,,0.02,WeatherDisplay:10.37,2013-06-29 01:00:00,
2013-06-28 20:05:00,70.4,69.2,29.79,NW,315,0.0,0.0,96,0.00,CLR,,0.02,WeatherDisplay:10.37,2013-06-29 01:05:00,
2013-06-28 20:10:00,70.4,69.2,29.79,NW,315,0.0,0.0,96,0.00,CLR,,0.02,WeatherDisplay:10.37,2013-06-29 01:10:00,
2013-06-28 20:15:00,70.6,69.4,29.79,NW,315,0.0,0.0,96,0.00,CLR,,0.02,WeatherDisplay:10.37,2013-06-29 01:15:00,
2013-06-28 20:20:00,70.4,69.2,29.79,NW,315,0.0,0.0,96,0.00,CLR,,0.02,WeatherDisplay:10.37,2013-06-29 01:20:00,
2013-06-28 20:25:00,70.6,69.4,29.79,NW,315,0.0,0.0,96,0.00,CLR,,0.02,WeatherDisplay:10.37,2013-06-29 01:25:00,
2013-06-28 20:30:00,70.6,69.4,29.79,NW,315,0.0,0.0,96,0.00,CLR,,0.02,WeatherDisplay:10.37,2013-06-29 01:30:00,
2013-06-28 20:35:00,70.4,69.2,29.79,NW,315,0.0,0.0,96,0.00,CLR,,0.02,WeatherDisplay:10.37,2013-06-29 01:35:00,
2013-06-28 20:40:00,70.4,69.2,29.79,NW,315,0.0,0.0,96,0.00,CLR,,0.02,WeatherDisplay:10.37,2013-06-29 01:40:00,
2013-06-28 20:45:00,70.4,69.2,29.79,NW,315,0.0,0.0,96,0.00,CLR,,0.02,WeatherDisplay:10.37,2013-06-29 01:45:00,
2013-06-28 20:50:00,70.6,69.4,29.79,NW,315,0.0,0.0,96,0.00,CLR,,0.02,WeatherDisplay:10.37,2013-06-29 01:50:00,
2013-06-28 20:55:00,70.6,69.4,29.79,NW,315,0.0,1.0,96,0.00,CLR,,0.02,WeatherDisplay:10.37,2013-06-29 01:55:00,
2013-06-28 21:00:00,70.6,69.4,29.79,NW,315,0.0,0.0,96,0.00,CLR,,0.02,WeatherDisplay:10.37,2013-06-29 02:00:00,
2013-06-28 21:05:00,70.8,69.6,29.78,NW,315,0.0,0.0,96,0.00,CLR,,0.02,WeatherDisplay:10.37,2013-06-29 02:05:00,
2013-06-28 21:10:00,70.9,69.7,29.78,NW,315,0.0,0.0,96,0.00,CLR,,0.02,WeatherDisplay:10.37,2013-06-29 02:10:00,
2013-06-28 21:15:00,71.1,69.9,29.78,NW,315,0.0,1.0,96,0.00,CLR,,0.02,WeatherDisplay:10.37,2013-06-29 02:15:00,
2013-06-28 21:20:00,71.1,69.6,29.78,NW,315,0.0,1.0,95,0.00,CLR,,0.02,WeatherDisplay:10.37,2013-06-29 02:20:00,
2013-06-28 21:25:00,71.3,69.8,29.78,NW,315,0.0,1.0,95,0.00,CLR,,0.02,WeatherDisplay:10.37,2013-06-29 02:25:00,
2013-06-28 21:30:00,71.8,70.3,29.78,NW,315,0.0,1.0,95,0.00,CLR,,0.02,WeatherDisplay:10.37,2013-06-29 02:30:00,
2013-06-28 21:35:00,72.0,70.5,29.79,NW,315,0.0,1.0,95,0.00,CLR,,0.02,WeatherDisplay:10.37,2013-06-29 02:35:00,
2013-06-28 21:40:00,72.0,70.2,29.79,NW,315,0.0,1.0,94,0.00,CLR,,0.02,WeatherDisplay:10.37,2013-06-29 02:40:00,
2013-06-28 21:45:00,71.8,69.7,29.79,NW,315,0.0,1.0,93,0.00,CLR,,0.02,WeatherDisplay:10.37,2013-06-29 02:45:00,
2013-06-28 21:50:00,71.6,69.2,29.79,NW,315,0.0,3.0,92,0.00,CLR,,0.02,WeatherDisplay:10.37,2013-06-29 02:50:00,
2013-06-28 21:55:00,72.0,69.5,29.79,NW,315,0.0,1.0,92,0.00,CLR,,0.02,WeatherDisplay:10.37,2013-06-29 02:55:00,
2013-06-28 22:00:00,72.1,69.6,29.79,NW,315,0.0,0.0,92,0.00,CLR,,0.02,WeatherDisplay:10.37,2013-06-29 03:00:00,
2013-06-28 22:05:00,72.1,69.3,29.79,NW,315,0.0,1.0,91,0.00,CLR,,0.02,WeatherDisplay:10.37,2013-06-29 03:05:00,
2013-06-28 22:10:00,72.1,69.3,29.79,NW,315,0.0,1.0,91,0.00,CLR,,0.02,WeatherDisplay:10.37,2013-06-29 03:10:00,
2013-06-28 22:15:00,72.3,69.5,29.79,NW,315,0.0,1.0,91,0.00,CLR,,0.02,WeatherDisplay:10.37,2013-06-29 03:15:00,
2013-06-28 22:20:00,73.0,69.9,29.80,NW,315,0.0,1.0,90,0.00,CLR,,0.02,WeatherDisplay:10.37,2013-06-29 03:20:00,
2013-06-28 22:25:00,73.5,70.1,29.80,NW,315,0.0,1.0,89,0.00,CLR,,0.02,WeatherDisplay:10.37,2013-06-29 03:25:00,
2013-06-28 22:30:00,74.0,70.2,29.80,NW,315,0.0,1.0,88,0.00,CLR,,0.02,WeatherDisplay:10.37,2013-06-29 03:30:00,
2013-06-28 22:35:00,74.6,70.1,29.79,NW,315,0.0,1.0,86,0.00,CLR,,0.02,WeatherDisplay:10.37,2013-06-29 03:35:00,
2013-06-28 22:40:00,75.3,70.8,29.79,NW,315,0.0,1.0,86,0.00,CLR,,0.02,WeatherDisplay:10.37,2013-06-29 03:40:00,
2013-06-28 22:45:00,76.3,71.1,29.79,NW,315,0.0,1.0,84,0.00,CLR,,0.02,WeatherDisplay:10.37,2013-06-29 03:45:00,
2013-06-28 22:50:00,76.8,71.2,29.79,NW,315,0.0,1.0,83,0.00,CLR,,0.02,WeatherDisplay:10.37,2013-06-29 03:50:00,
2013-06-28 22:55:00,77.6,71.3,29.79,NW,315,0.0,1.0,81,0.00,CLR,,0.02,WeatherDisplay:10.37,2013-06-29 03:55:00,
2013-06-28 23:00:00,78.3,72.0,29.79,NW,315,0.0,1.0,81,0.00,CLR,,0.02,WeatherDisplay:10.37,2013-06-29 04:00:00,
2013-06-28 23:05:00,79.0,72.3,29.78,NW,315,0.0,1.0,80,0.00,CLR,,0.02,WeatherDisplay:10.37,2013-06-29 04:05:00,
2013-06-28 23:10:00,79.8,72.3,29.78,NW,315,0.0,1.0,78,0.00,CLR,,0.02,WeatherDisplay:10.37,2013-06-29 04:10:00,
2013-06-28 23:15:00,79.8,70.8,29.78,NW,315,0.0,1.0,74,0.00,CLR,,0.02,WeatherDisplay:10.37,2013-06-29 04:15:00,
2013-06-28 23:20:00,80.1,71.8,29.78,NW,315,0.0,1.0,76,0.00,CLR,,0.02,WeatherDisplay:10.37,2013-06-29 04:20:00,
2013-06-28 23:25:00,80.7,71.6,29.78,NW,315,0.0,1.0,74,0.00,CLR,,0.02,WeatherDisplay:10.37,2013-06-29 04:25:00,
2013-06-28 23:30:00,81.4,69.4,29.78,NW,315,0.0,1.0,67,0.00,CLR,,0.02,WeatherDisplay:10.37,2013-06-29 04:30:00,
2013-06-28 23:35:00,82.0,69.1,29.78,WSW,257,1.0,5.0,65,0.00,CLR,,0.02,WeatherDisplay:10.37,2013-06-29 04:35:00,
2013-06-28 23:40:00,82.2,67.9,29.78,South,191,1.0,5.0,62,0.00,CLR,,0.02,WeatherDisplay:10.37,2013-06-29 04:40:00,
2013-06-28 23:45:00,82.6,66.8,29.78,SSW,202,0.0,1.0,59,0.00,CLR,,0.02,WeatherDisplay:10.37,2013-06-29 04:45:00,
2013-06-28 23:50:00,83.0,68.6,29.78,SSW,202,0.0,1.0,62,0.00,CLR,,0.02,WeatherDisplay:10.37,2013-06-29 04:50:00,
2013-06-28 23:55:00,83.4,67.6,29.78,SSW,202,0.0,1.0,59,0.00,CLR,,0.02,WeatherDisplay:10.37,2013-06-29 04:55:00,